Kassel-Calden Airport EDVK

Flugplatz Daten

Name: Kassel-Calden Airport

Ident: EDVK

Lat: 51,40833282

Long: 9,37749958

Platzhöhe: 909 ft

IataCode: KSF

City: Kassel

Metar

2022/08/10 19:20
EDVK 101920Z 08004KT CAVOK 23/07 Q1024

Taf

Gewünschte Webcam nicht vorhanden? Dann fügen Sie eine hinzu. Sie wird dann so schnell wie möglich freigeschaltet
Url: Title: